Hourly Data Report for October 13, 2014

All times are specified in Local Standard Time (LST). Add 1 hour to adjust for Daylight Saving Time where and when it is observed.

PANGNIRTUNG
NUNAVUT

66°08'36.300" N
65°42'40.500" W
22.60 m
2403049
71826
WXP

Download Data

Hourly Data (October 2014)
Hourly Data Report for October 13, 2014
Temp Definition
°C
Dew Point Temp Definition
°C
Rel Hum Definition
%
Wind Dir Definition
10's deg

Wind Spd Definition
km/h
Visibility Definition
km
Stn Press Definition
kPa
Hmdx Definition


Wind Chill Definition


Weather Definition


TIME
00:00 0.9 -0.8 88 10 20   100.51     LegendNANA
01:00 0.2 -0.9 92 4 5   100.51     LegendNANA
02:00 -0.2 -0.8 96 1 5   100.51   -2 LegendNANA
03:00 -0.3 -0.8 96 4 12   100.51   -4 LegendNANA
04:00 -0.1 -1.1 93 6 8   100.47   -3 LegendNANA
05:00 0.2 -1.7 87 11 5   100.46     LegendNANA
06:00 0.6 -1.3 87 3 15   100.46     LegendNANA
07:00 0.0 -1.0 93 4 10   100.46   -3 LegendNANA
08:00 -0.1 -0.5 98 1 13   100.45   -4 LegendNANA
09:00 -0.3 -0.5 99 2 14   100.45   -5 LegendNANA
10:00 -0.3 -0.4 99 3 15   100.45   -5 LegendNANA
11:00 -0.4 -0.7 98 4 13   100.45   -5 LegendNANA
12:00 -0.2 -0.7 96 9 9   100.44   -3 LegendNANA
13:00 0.1 -0.5 96 2 15   100.46     LegendNANA
14:00 -0.2 -0.9 95 1 16   100.48   -5 LegendNANA
15:00 0.1 -1.4 90 4 9   100.50     LegendNANA
16:00 0.0 -1.8 88 34 4   100.50   -1 LegendNANA
17:00 0.2 -1.7 87 35 15   100.50     LegendNANA
18:00 1.0 -2.3 78 33 5   100.51     LegendNANA
19:00 0.6 -3.2 76 20 8   100.51     LegendNANA
20:00 0.9 -2.8 76 11 11   100.52     LegendNANA
21:00 1.1 -3.1 73 15 11   100.50     LegendNANA
22:00 1.0 -2.4 78 12 8   100.45     LegendNANA
23:00 1.1 -2.1 79 11 18   100.41     LegendNANA

Notes on Data Quality.

Legend

  • E = Estimated
  • M = Missing
  • NA = Not Available
  • ‡ = Partner data that is not subject to review by the National Climate Archives
Date modified: